HULIANWANG DIGUI-120

导读 | 豆包AI

HULIANWANG DIGUI-120是中国于2025年12月11日发射的低轨互联网卫星,属于中国低轨卫星互联网组网建设的组成部分。该卫星主要用于提供全球宽带互联网接入服务,可支撑偏远地区通信、物联网互联以及高速移动场景下的网络服务,将推动天地一体化信息网络构建,增强中国卫星通信能力,服务全球网络覆盖需求。

基本信息
目录编号:
67060
目录名称:
HULIANWANG DIGUI-120
国际标识:
2025-295B
轨道中心:
EARTH
卫星名称:
HULIANWANG DIGUI-120
卫星全名:
HULIANWANG DIGUI-120
卫星状态:
在轨 (已飞行114 天)
发射日期:
2025-12-11 UTC
国别 :
中国 (CN)
星等 :
--
轨道信息
数据来源 国际轨道数据 AOE轨道数据
星历时间 2026-04-04T02:53:51+0800
6小时前
查看轨道信息
2026-03-31T16:00:00+0800
3天前
查看轨道信息
半长轴 7527.454km 7527.452km
偏心率 0.0000148 0.0000101
轨道倾角 50.004° 50.005°
近地点辐角 160.031° 147.646°
升交点赤经 292.483° 304.872°
平近点角 200.057° 232.545°
近地点 1149.205km 1149.238km
远地点 1149.429km 1149.392km
周期 108.326分钟 108.326分钟
每日圈数 13.293235 13.293238
详细信息
使用方式:
暂无
2D轨道图
3D轨道图
轨道高度分析图
轨道倾角分析图
轨道综合分析图
查看轨道综合分析图